QPF
0.00 0.00 0.01 0.01 0.01 0.01 0.00 0.00 0.00 0.00 0.00 0.00 0.00 0.01 0.02 0.01 0.01 0.00 0.00 0.00 0.00 0.00 0.00 0.01 0.02 0.03 0.03 0.03 0.02 0.00 0.00 0.00 0.00 0.00 0.00 0.00 0.00 0.00 0.00 0.00 0.00 0.00 0.00
0.00 0.00 0.01 0.01 0.01 0.01 0.00 0.00 0.00 0.00 0.00 0.00 0.01 0.01 0.01 0.01 0.01 0.00 0.00 0.00 0.00 0.00 0.00 0.00 0.00 0.01 0.01 0.01 0.01 0.00 0.00 0.00 0.00 0.00 0.00 0.00 0.00 0.00 0.00 0.00 0.00 0.00 0.00
0.00 0.00 0.01 0.01 0.01 0.01 0.00 0.00 0.00 0.00 0.00 0.00 0.01 0.01 0.01 0.00 0.00 0.00 0.00 0.00 0.00 0.00 0.00 0.00 0.00 0.00 0.00 0.00 0.00 0.00 0.00 0.00 0.00 0.00 0.00 0.00 0.00 0.00 0.00 0.00 0.00 0.00 0.00
0.00 0.00 0.00 0.00 0.01 0.01 0.00 0.00 0.00 0.00 0.00 0.00 0.00 0.00 0.00 0.00 0.00 0.00 0.00 0.00 0.00 0.00 0.00 0.00 0.00 0.00 0.00 0.00 0.00 0.00 0.00 0.00 0.00 0.00 0.00 0.00 0.00 0.00 0.00 0.00 0.00 0.00 0.00
0.00 0.00 0.00 0.00 0.00 0.01 0.00 0.00 0.00 0.00 0.00 0.00 0.00 0.00 0.00 0.00 0.00 0.00 0.00 0.00 0.00 0.00 0.00 0.00 0.00 0.00 0.00 0.00 0.00 0.00 0.00 0.00 0.00 0.00 0.00 0.00 0.00 0.00 0.00 0.00 0.01 0.01 0.00
0.00 0.00 0.00 0.00 0.00 0.01 0.00 0.00 0.00 0.00 0.00 0.00 0.00 0.00 0.00 0.01 0.01 0.01 0.00 0.00 0.00 0.00 0.00 0.00 0.00 0.00 0.00 0.00 0.00 0.00 0.00 0.00 0.00 0.00 0.00 0.00 0.00 0.00 0.00 0.00 0.00 0.00 0.00
0.00 0.00 0.00 0.00 0.00 0.00 0.00 0.00 0.00 0.00 0.00 0.00 0.00 0.00 0.00 0.01 0.01 0.02 0.01 0.00 0.00 0.00 0.00 0.00 0.00 0.00 0.00 0.00 0.00 0.00 0.00 0.00 0.00 0.00 0.00 0.00 0.00 0.00 0.00 0.00 0.00 0.00 0.00
0.00 0.00 0.00 0.00 0.00 0.00 0.00 0.00 0.00 0.00 0.00 0.00 0.00 0.00 0.00 0.00 0.01 0.01 0.01 0.00 0.00 0.00 0.00 0.00 0.00 0.00 0.00 0.00 0.00 0.00 0.00 0.00 0.00 0.00 0.00 0.00 0.00 0.00 0.00 0.00 0.00 0.00 0.01
0.00 0.00 0.00 0.00 0.00 0.00 0.00 0.00 0.00 0.00 0.00 0.00 0.00 0.00 0.00 0.00 0.00 0.01 0.00 0.00 0.00 0.00 0.00 0.00 0.00 0.00 0.00 0.00 0.00 0.00 0.00 0.00 0.00 0.00 0.00 0.00 0.00 0.00 0.00 0.00 0.00 0.01 0.01
0.00 0.00 0.00 0.00 0.00 0.00 0.00 0.00 0.00 0.00 0.00 0.00 0.00 0.00 0.00 0.00 0.00 0.00 0.00 0.00 0.00 0.00 0.00 0.00 0.00 0.00 0.00 0.00 0.00 0.00 0.00 0.00 0.00 0.00 0.00 0.00 0.00 0.00 0.01 0.02 0.02 0.03 0.03
0.00 0.00 0.00 0.00 0.00 0.00 0.00 0.00 0.00 0.00 0.00 0.00 0.00 0.00 0.00 0.00 0.00 0.00 0.00 0.00 0.00 0.00 0.00 0.00 0.00 0.01 0.01 0.00 0.00 0.00 0.00 0.00 0.00 0.00 0.00 0.00 0.00 0.01 0.02 0.04 0.04 0.05 0.05
0.00 0.00 0.00 0.00 0.00 0.00 0.00 0.00 0.00 0.00 0.00 0.00 0.00 0.00 0.00 0.00 0.00 0.00 0.00 0.00 0.00 0.00 0.00 0.00 0.00 0.00 0.00 0.00 0.00 0.00 0.00 0.00 0.00 0.00 0.00 0.00 0.00 0.00 0.01 0.02 0.03 0.03 0.04
0.00 0.00 0.00 0.00 0.00 0.00 0.00 0.00 0.00 0.00 0.00 0.00 0.00 0.00 0.00 0.00 0.00 0.00 0.00 0.00 0.00 0.00 0.00 0.00 0.00 0.00 0.00 0.00 0.00 0.00 0.00 0.00 0.00 0.00 0.00 0.00 0.00 0.00 0.00 0.00 0.01 0.01 0.02
0.00 0.00 0.00 0.00 0.00 0.00 0.00 0.00 0.00 0.00 0.00 0.00 0.00 0.00 0.00 0.00 0.00 0.00 0.00 0.00 0.00 0.00 0.00 0.00 0.00 0.00 0.00 0.00 0.00 0.00 0.00 0.00 0.00 0.00 0.00 0.00 0.00 0.00 0.00 0.00 0.00 0.00 0.00
0.00 0.00 0.00 0.00 0.00 0.00 0.00 0.00 0.00 0.00 0.00 0.00 0.00 0.00 0.00 0.00 0.00 0.00 0.00 0.00 0.00 0.00 0.00 0.00 0.00 0.00 0.00 0.00 0.00 0.00 0.00 0.00 0.00 0.00 0.00 0.00 0.00 0.00 0.00 0.00 0.00 0.00 0.00
0.00 0.00 0.00 0.00 0.00 0.00 0.00 0.00 0.00 0.00 0.00 0.00 0.00 0.00 0.00 0.00 0.00 0.00 0.00 0.00 0.00 0.00 0.00 0.00 0.00 0.00 0.00 0.00 0.00 0.00 0.00 0.00 0.00 0.00 0.00 0.00 0.00 0.00 0.00 0.00 0.00 0.00 0.00
0.00 0.00 0.00 0.00 0.00 0.00 0.00 0.00 0.01 0.00 0.00 0.00 0.00 0.00 0.00 0.00 0.00 0.00 0.00 0.00 0.00 0.00 0.00 0.00 0.00 0.00 0.00 0.00 0.00 0.00 0.00 0.00 0.00 0.00 0.00 0.00 0.00 0.00 0.00 0.00 0.00 0.00 0.00
0.00 0.00 0.00 0.00 0.00 0.00 0.00 0.01 0.01 0.01 0.00 0.00 0.00 0.00 0.00 0.00 0.00 0.00 0.00 0.00 0.00 0.00 0.00 0.00 0.00 0.00 0.00 0.00 0.00 0.00 0.00 0.00 0.00 0.00 0.00 0.00 0.00 0.00 0.00 0.00 0.00 0.00 0.00
0.00 0.00 0.00 0.00 0.00 0.00 0.01 0.02 0.02 0.01 0.00 0.00 0.00 0.00 0.00 0.00 0.00 0.00 0.00 0.00 0.00 0.00 0.00 0.00 0.00 0.00 0.00 0.00 0.00 0.00 0.00 0.00 0.00 0.00 0.00 0.00 0.00 0.00 0.00 0.00 0.00 0.00 0.00
0.00 0.00 0.00 0.00 0.00 0.00 0.01 0.02 0.03 0.01 0.00 0.00 0.00 0.00 0.00 0.00 0.00 0.00 0.00 0.00 0.00 0.00 0.00 0.00 0.00 0.00 0.00 0.00 0.00 0.00 0.00 0.00 0.00 0.00 0.00 0.00 0.00 0.00 0.00 0.00 0.00 0.00 0.00
0.00 0.00 0.00 0.00 0.00 0.00 0.01 0.02 0.02 0.01 0.01 0.00 0.00 0.00 0.00 0.00 0.00 0.00 0.00 0.00 0.00 0.00 0.00 0.00 0.00 0.00 0.00 0.00 0.00 0.00 0.00 0.00 0.00 0.00 0.00 0.00 0.00 0.00 0.00 0.00 0.00 0.00 0.00
0.00 0.00 0.00 0.00 0.00 0.00 0.01 0.02 0.03 0.02 0.01 0.00 0.00 0.00 0.00 0.00 0.00 0.00 0.00 0.00 0.00 0.00 0.00 0.00 0.00 0.00 0.00 0.00 0.00 0.00 0.00 0.00 0.00 0.00 0.00 0.00 0.00 0.00 0.00 0.00 0.00 0.00 0.00
0.00 0.00 0.00 0.00 0.00 0.00 0.01 0.03 0.03 0.02 0.01 0.00 0.00 0.00 0.00 0.00 0.00 0.00 0.00 0.00 0.00 0.00 0.00 0.00 0.00 0.00 0.00 0.00 0.00 0.00 0.00 0.00 0.00 0.00 0.00 0.00 0.00 0.00 0.00 0.00 0.00 0.00 0.00
0.00 0.00 0.00 0.00 0.00 0.00 0.01 0.02 0.02 0.01 0.00 0.00 0.00 0.00 0.00 0.00 0.00 0.00 0.00 0.00 0.00 0.00 0.00 0.00 0.00 0.00 0.00 0.00 0.00 0.00 0.00 0.00 0.00 0.00 0.00 0.00 0.00 0.00 0.00 0.00 0.00 0.00 0.00
0.00 0.00 0.00 0.00 0.00 0.00 0.00 0.01 0.01 0.01 0.00 0.00 0.00 0.00 0.00 0.00 0.00 0.00 0.00 0.00 0.00 0.00 0.00 0.00 0.00 0.00 0.00 0.00 0.00 0.00 0.00 0.00 0.00 0.00 0.00 0.00 0.00 0.00 0.00 0.00 0.00 0.00 0.00
0.00 0.00 0.00 0.00 0.00 0.00 0.00 0.00 0.00 0.00 0.00 0.00 0.00 0.00 0.00 0.00 0.00 0.00 0.00 0.00 0.00 0.00 0.00 0.00 0.00 0.00 0.00 0.00 0.00 0.00 0.00 0.00 0.00 0.00 0.00 0.00 0.00 0.00 0.00 0.00 0.00 0.00 0.00
MSLP
1011.11 1010.85 1010.77 1010.89 1011.20 1011.62 1012.08 1012.50 1012.82 1013.01 1013.09 1013.10 1013.11 1013.16 1013.29 1013.50 1013.75 1014.02 1014.24 1014.38 1014.43 1014.40 1014.32 1014.25 1014.21 1014.25 1014.37 1014.55 1014.78 1015.00 1015.21 1015.38 1015.51 1015.59 1015.64 1015.67 1015.66 1015.64 1015.58 1015.51 1015.41 1015.31 1015.23
1010.92 1010.70 1010.66 1010.82 1011.16 1011.60 1012.09 1012.54 1012.88 1013.10 1013.21 1013.26 1013.29 1013.35 1013.49 1013.69 1013.95 1014.21 1014.43 1014.59 1014.67 1014.67 1014.63 1014.59 1014.57 1014.59 1014.68 1014.81 1014.97 1015.13 1015.28 1015.41 1015.51 1015.59 1015.64 1015.67 1015.67 1015.64 1015.57 1015.47 1015.34 1015.21 1015.11
1010.66 1010.51 1010.52 1010.72 1011.09 1011.57 1012.08 1012.56 1012.93 1013.19 1013.33 1013.41 1013.46 1013.54 1013.67 1013.86 1014.10 1014.35 1014.57 1014.74 1014.84 1014.88 1014.88 1014.86 1014.86 1014.88 1014.94 1015.02 1015.11 1015.21 1015.30 1015.39 1015.47 1015.54 1015.60 1015.64 1015.65 1015.63 1015.55 1015.44 1015.29 1015.15 1015.03
1010.37 1010.30 1010.38 1010.63 1011.04 1011.54 1012.08 1012.57 1012.96 1013.25 1013.42 1013.52 1013.59 1013.68 1013.81 1013.99 1014.20 1014.43 1014.64 1014.80 1014.92 1014.99 1015.02 1015.04 1015.05 1015.08 1015.11 1015.15 1015.20 1015.24 1015.28 1015.33 1015.39 1015.45 1015.52 1015.57 1015.60 1015.58 1015.51 1015.39 1015.24 1015.10 1014.98
1010.11 1010.12 1010.27 1010.58 1011.01 1011.54 1012.08 1012.57 1012.98 1013.27 1013.47 1013.59 1013.68 1013.77 1013.90 1014.06 1014.25 1014.45 1014.64 1014.79 1014.91 1015.00 1015.05 1015.10 1015.13 1015.16 1015.19 1015.20 1015.21 1015.21 1015.22 1015.24 1015.28 1015.33 1015.40 1015.46 1015.49 1015.48 1015.41 1015.29 1015.15 1015.00 1014.88
1009.93 1010.02 1010.24 1010.59 1011.05 1011.57 1012.10 1012.58 1012.98 1013.27 1013.47 1013.61 1013.72 1013.83 1013.96 1014.11 1014.28 1014.45 1014.61 1014.75 1014.86 1014.95 1015.02 1015.07 1015.12 1015.16 1015.18 1015.18 1015.16 1015.14 1015.13 1015.13 1015.15 1015.20 1015.26 1015.31 1015.33 1015.31 1015.23 1015.11 1014.96 1014.81 1014.69
1009.88 1010.04 1010.31 1010.69 1011.16 1011.66 1012.16 1012.61 1012.97 1013.25 1013.45 1013.61 1013.74 1013.87 1014.01 1014.17 1014.33 1014.48 1014.61 1014.72 1014.81 1014.89 1014.95 1015.01 1015.06 1015.10 1015.12 1015.12 1015.10 1015.07 1015.04 1015.03 1015.03 1015.06 1015.10 1015.12 1015.12 1015.06 1014.96 1014.82 1014.66 1014.50 1014.38
1009.97 1010.18 1010.49 1010.88 1011.33 1011.81 1012.25 1012.65 1012.97 1013.23 1013.43 1013.60 1013.76 1013.93 1014.10 1014.27 1014.42 1014.56 1014.67 1014.75 1014.81 1014.86 1014.91 1014.96 1015.01 1015.05 1015.07 1015.08 1015.06 1015.03 1014.99 1014.96 1014.95 1014.95 1014.95 1014.93 1014.87 1014.77 1014.63 1014.45 1014.26 1014.09 1013.96
1010.17 1010.40 1010.73 1011.12 1011.55 1011.98 1012.37 1012.71 1012.99 1013.22 1013.42 1013.62 1013.81 1014.01 1014.22 1014.41 1014.58 1014.71 1014.80 1014.86 1014.89 1014.91 1014.94 1014.97 1015.01 1015.05 1015.08 1015.09 1015.07 1015.05 1015.01 1014.97 1014.93 1014.90 1014.84 1014.77 1014.65 1014.48 1014.28 1014.05 1013.83 1013.63 1013.48
1010.40 1010.64 1010.97 1011.35 1011.75 1012.13 1012.47 1012.77 1013.01 1013.23 1013.43 1013.65 1013.88 1014.12 1014.37 1014.59 1014.77 1014.91 1014.99 1015.02 1015.03 1015.03 1015.04 1015.06 1015.09 1015.13 1015.16 1015.18 1015.17 1015.15 1015.11 1015.06 1015.00 1014.92 1014.82 1014.68 1014.50 1014.27 1014.00 1013.72 1013.45 1013.22 1013.05
1010.56 1010.81 1011.13 1011.50 1011.87 1012.22 1012.53 1012.79 1013.01 1013.22 1013.44 1013.68 1013.95 1014.23 1014.51 1014.77 1014.97 1015.11 1015.19 1015.22 1015.22 1015.21 1015.21 1015.22 1015.26 1015.30 1015.34 1015.36 1015.36 1015.34 1015.29 1015.23 1015.15 1015.04 1014.89 1014.70 1014.46 1014.18 1013.86 1013.53 1013.22 1012.96 1012.77
1010.59 1010.83 1011.14 1011.50 1011.86 1012.19 1012.49 1012.74 1012.96 1013.19 1013.42 1013.69 1013.99 1014.31 1014.62 1014.90 1015.12 1015.28 1015.37 1015.40 1015.41 1015.42 1015.43 1015.45 1015.49 1015.54 1015.58 1015.61 1015.61 1015.59 1015.54 1015.46 1015.36 1015.23 1015.06 1014.84 1014.57 1014.25 1013.91 1013.55 1013.21 1012.92 1012.70
1010.42 1010.65 1010.96 1011.31 1011.67 1012.02 1012.32 1012.59 1012.84 1013.10 1013.37 1013.67 1014.00 1014.34 1014.67 1014.97 1015.21 1015.39 1015.50 1015.57 1015.61 1015.64 1015.68 1015.73 1015.79 1015.85 1015.89 1015.92 1015.91 1015.88 1015.81 1015.73 1015.62 1015.48 1015.31 1015.09 1014.82 1014.51 1014.16 1013.80 1013.45 1013.14 1012.89
1010.06 1010.27 1010.58 1010.94 1011.32 1011.69 1012.03 1012.35 1012.65 1012.95 1013.26 1013.60 1013.96 1014.32 1014.67 1014.98 1015.23 1015.44 1015.59 1015.70 1015.79 1015.87 1015.95 1016.04 1016.12 1016.19 1016.24 1016.25 1016.22 1016.17 1016.09 1016.00 1015.88 1015.76 1015.60 1015.41 1015.18 1014.90 1014.59 1014.25 1013.91 1013.59 1013.32
1009.54 1009.74 1010.04 1010.42 1010.82 1011.24 1011.64 1012.02 1012.39 1012.76 1013.13 1013.51 1013.89 1014.27 1014.63 1014.95 1015.23 1015.46 1015.66 1015.82 1015.97 1016.11 1016.25 1016.38 1016.49 1016.56 1016.60 1016.58 1016.53 1016.45 1016.34 1016.23 1016.12 1016.01 1015.90 1015.76 1015.59 1015.38 1015.12 1014.83 1014.52 1014.20 1013.90
1008.95 1009.13 1009.43 1009.81 1010.25 1010.72 1011.19 1011.66 1012.11 1012.56 1012.99 1013.42 1013.83 1014.23 1014.60 1014.93 1015.23 1015.50 1015.74 1015.97 1016.18 1016.39 1016.58 1016.75 1016.88 1016.95 1016.97 1016.92 1016.83 1016.70 1016.56 1016.43 1016.32 1016.23 1016.16 1016.08 1015.99 1015.85 1015.67 1015.44 1015.17 1014.86 1014.55
1008.39 1008.55 1008.84 1009.23 1009.70 1010.22 1010.76 1011.31 1011.86 1012.39 1012.89 1013.37 1013.82 1014.24 1014.62 1014.97 1015.29 1015.60 1015.89 1016.17 1016.45 1016.71 1016.95 1017.15 1017.29 1017.35 1017.34 1017.26 1017.11 1016.94 1016.76 1016.60 1016.48 1016.40 1016.36 1016.34 1016.31 1016.25 1016.15 1015.98 1015.75 1015.46 1015.13
1007.94 1008.08 1008.34 1008.73 1009.22 1009.79 1010.40 1011.04 1011.67 1012.28 1012.86 1013.40 1013.89 1014.33 1014.73 1015.10 1015.44 1015.78 1016.11 1016.44 1016.76 1017.07 1017.34 1017.56 1017.70 1017.76 1017.72 1017.60 1017.42 1017.20 1016.98 1016.78 1016.64 1016.56 1016.52 1016.53 1016.54 1016.53 1016.48 1016.37 1016.17 1015.91 1015.57
1007.64 1007.75 1008.00 1008.38 1008.88 1009.48 1010.15 1010.85 1011.57 1012.26 1012.91 1013.50 1014.03 1014.50 1014.92 1015.31 1015.68 1016.04 1016.40 1016.76 1017.12 1017.46 1017.75 1017.98 1018.12 1018.17 1018.11 1017.96 1017.75 1017.50 1017.24 1017.02 1016.84 1016.72 1016.67 1016.66 1016.67 1016.68 1016.65 1016.56 1016.39 1016.14 1015.82
1007.48 1007.58 1007.81 1008.17 1008.68 1009.30 1010.01 1010.77 1011.55 1012.31 1013.02 1013.66 1014.23 1014.74 1015.19 1015.59 1015.98 1016.36 1016.74 1017.12 1017.50 1017.84 1018.14 1018.37 1018.52 1018.56 1018.50 1018.36 1018.14 1017.87 1017.59 1017.33 1017.11 1016.95 1016.84 1016.78 1016.75 1016.72 1016.67 1016.57 1016.41 1016.17 1015.85
1007.41 1007.51 1007.73 1008.09 1008.59 1009.22 1009.96 1010.76 1011.58 1012.40 1013.16 1013.85 1014.46 1015.00 1015.48 1015.91 1016.31 1016.71 1017.10 1017.48 1017.85 1018.20 1018.50 1018.73 1018.88 1018.94 1018.90 1018.78 1018.58 1018.33 1018.05 1017.76 1017.50 1017.27 1017.08 1016.93 1016.81 1016.70 1016.59 1016.45 1016.26 1016.02 1015.71
1007.36 1007.49 1007.72 1008.08 1008.58 1009.21 1009.96 1010.79 1011.65 1012.50 1013.30 1014.03 1014.69 1015.26 1015.76 1016.22 1016.64 1017.04 1017.44 1017.81 1018.18 1018.51 1018.80 1019.03 1019.20 1019.28 1019.29 1019.21 1019.06 1018.85 1018.59 1018.30 1017.99 1017.69 1017.40 1017.13 1016.89 1016.66 1016.45 1016.24 1016.01 1015.75 1015.45
1007.27 1007.45 1007.71 1008.08 1008.59 1009.23 1009.98 1010.82 1011.70 1012.58 1013.41 1014.18 1014.87 1015.48 1016.02 1016.50 1016.94 1017.36 1017.74 1018.11 1018.46 1018.77 1019.05 1019.28 1019.46 1019.59 1019.64 1019.63 1019.55 1019.40 1019.18 1018.90 1018.57 1018.20 1017.80 1017.41 1017.02 1016.66 1016.33 1016.02 1015.72 1015.43 1015.12
1007.09 1007.34 1007.65 1008.06 1008.58 1009.23 1009.99 1010.84 1011.73 1012.62 1013.48 1014.28 1015.01 1015.65 1016.23 1016.75 1017.21 1017.64 1018.02 1018.38 1018.70 1018.99 1019.25 1019.48 1019.67 1019.83 1019.94 1020.01 1020.01 1019.93 1019.77 1019.51 1019.16 1018.73 1018.25 1017.73 1017.21 1016.70 1016.24 1015.82 1015.44 1015.10 1014.77
1006.83 1007.17 1007.55 1008.00 1008.56 1009.22 1009.99 1010.84 1011.73 1012.64 1013.52 1014.35 1015.11 1015.80 1016.42 1016.98 1017.47 1017.91 1018.29 1018.63 1018.92 1019.18 1019.42 1019.63 1019.83 1020.01 1020.17 1020.30 1020.37 1020.37 1020.26 1020.03 1019.69 1019.22 1018.67 1018.05 1017.41 1016.77 1016.18 1015.65 1015.19 1014.79 1014.42
1006.52 1006.97 1007.43 1007.94 1008.53 1009.22 1010.00 1010.85 1011.75 1012.66 1013.56 1014.42 1015.21 1015.95 1016.61 1017.20 1017.72 1018.17 1018.56 1018.88 1019.15 1019.37 1019.56 1019.75 1019.93 1020.11 1020.30 1020.47 1020.60 1020.65 1020.59 1020.40 1020.07 1019.59 1018.99 1018.30 1017.57 1016.83 1016.14 1015.51 1014.96 1014.49 1014.07
Thickness
5753 5755 5754 5751 5747 5745 5742 5740 5737 5735 5734 5732 5731 5730 5728 5727 5726 5725 5724 5723 5722 5723 5723 5724 5724 5725 5725 5723 5721 5720 5719 5717 5716 5715 5714 5713 5713 5713 5715 5715 5714 5713 5713
5758 5755 5752 5749 5745 5742 5739 5736 5734 5732 5731 5730 5729 5727 5725 5723 5722 5721 5721 5720 5719 5719 5720 5720 5720 5720 5720 5719 5717 5716 5716 5714 5713 5712 5710 5709 5709 5709 5711 5712 5711 5710 5710
5756 5752 5749 5746 5743 5740 5736 5733 5730 5729 5728 5727 5725 5724 5722 5720 5719 5718 5717 5717 5716 5715 5716 5715 5715 5715 5714 5713 5713 5712 5712 5711 5710 5708 5707 5706 5706 5706 5708 5709 5709 5708 5707
5753 5750 5746 5743 5740 5737 5734 5730 5727 5725 5724 5723 5722 5720 5718 5717 5715 5715 5714 5713 5712 5711 5710 5710 5710 5710 5709 5708 5708 5708 5708 5707 5706 5704 5703 5702 5702 5702 5704 5706 5707 5706 5705
5748 5746 5743 5739 5736 5734 5731 5727 5724 5722 5720 5719 5718 5716 5715 5713 5712 5711 5710 5709 5708 5706 5705 5705 5705 5704 5704 5703 5703 5703 5703 5703 5702 5701 5700 5699 5698 5698 5699 5701 5703 5703 5702
5742 5741 5739 5735 5732 5730 5727 5724 5721 5718 5717 5715 5714 5712 5711 5709 5708 5708 5707 5705 5703 5702 5701 5700 5700 5699 5699 5698 5698 5698 5698 5698 5697 5696 5696 5696 5695 5694 5695 5697 5698 5699 5699
5737 5736 5734 5731 5728 5726 5723 5720 5718 5715 5713 5712 5710 5709 5707 5706 5705 5705 5703 5701 5699 5698 5696 5696 5695 5695 5694 5694 5693 5693 5693 5692 5692 5692 5692 5692 5691 5691 5692 5693 5694 5694 5694
5733 5731 5730 5728 5725 5722 5719 5716 5714 5711 5710 5708 5707 5706 5704 5703 5702 5702 5700 5698 5695 5694 5692 5691 5691 5691 5690 5690 5689 5689 5688 5688 5688 5688 5688 5688 5687 5687 5688 5690 5690 5690 5690
5729 5727 5726 5724 5721 5718 5715 5712 5710 5708 5706 5704 5703 5702 5700 5699 5698 5698 5696 5694 5692 5690 5688 5687 5687 5687 5687 5686 5686 5685 5685 5684 5684 5684 5683 5683 5682 5683 5685 5686 5686 5686 5687
5724 5723 5722 5720 5717 5714 5711 5708 5706 5704 5702 5701 5699 5698 5696 5695 5694 5694 5692 5690 5688 5686 5685 5684 5684 5684 5684 5683 5682 5681 5680 5679 5679 5678 5677 5677 5677 5678 5680 5681 5682 5682 5682
5718 5718 5718 5716 5713 5710 5707 5704 5702 5700 5699 5697 5695 5694 5692 5691 5690 5689 5687 5685 5684 5682 5680 5680 5680 5680 5679 5678 5676 5675 5674 5673 5673 5672 5671 5670 5671 5673 5674 5675 5675 5676 5677
5714 5715 5715 5712 5709 5706 5703 5700 5698 5697 5695 5693 5691 5689 5688 5687 5685 5683 5682 5680 5679 5677 5675 5674 5673 5672 5671 5670 5668 5668 5666 5665 5665 5664 5663 5663 5664 5665 5665 5665 5666 5667 5669
5712 5712 5712 5710 5706 5702 5699 5697 5694 5693 5691 5689 5687 5685 5684 5682 5680 5678 5677 5675 5674 5672 5669 5667 5665 5663 5662 5661 5660 5659 5657 5657 5655 5655 5654 5654 5655 5655 5655 5654 5655 5656 5658
5708 5709 5709 5707 5703 5699 5696 5693 5691 5689 5687 5685 5683 5681 5679 5677 5675 5673 5671 5670 5668 5665 5662 5659 5656 5654 5653 5652 5651 5650 5649 5647 5646 5645 5644 5644 5643 5643 5643 5643 5643 5644 5645
5705 5707 5706 5704 5701 5697 5693 5690 5688 5686 5684 5681 5678 5677 5675 5672 5669 5667 5664 5662 5660 5656 5653 5651 5648 5646 5645 5644 5643 5642 5640 5638 5637 5635 5634 5633 5632 5632 5632 5632 5632 5633 5634
5705 5706 5706 5703 5699 5695 5690 5687 5685 5683 5679 5676 5674 5672 5670 5667 5664 5660 5657 5654 5651 5648 5645 5644 5641 5639 5638 5636 5634 5633 5631 5629 5627 5625 5623 5622 5621 5620 5620 5620 5621 5621 5622
5706 5707 5705 5703 5698 5694 5689 5686 5682 5679 5675 5672 5670 5668 5666 5662 5658 5654 5650 5646 5643 5640 5638 5637 5635 5633 5631 5628 5625 5624 5621 5619 5617 5615 5613 5612 5610 5608 5608 5608 5608 5608 5609
5704 5704 5703 5702 5696 5692 5688 5683 5679 5675 5671 5668 5665 5662 5659 5655 5651 5647 5642 5638 5635 5633 5631 5629 5626 5624 5621 5619 5616 5615 5612 5609 5607 5605 5603 5602 5600 5598 5597 5596 5594 5595 5595
5700 5701 5700 5699 5694 5689 5684 5679 5674 5669 5664 5661 5659 5655 5651 5647 5644 5640 5634 5630 5627 5625 5623 5621 5616 5614 5611 5608 5608 5607 5603 5600 5598 5597 5594 5592 5590 5589 5586 5584 5582 5581 5581
5695 5696 5695 5693 5688 5683 5677 5671 5665 5659 5655 5653 5651 5648 5643 5640 5636 5632 5626 5622 5619 5616 5613 5611 5607 5604 5600 5597 5598 5598 5595 5593 5590 5588 5586 5583 5580 5578 5575 5572 5568 5567 5566
5687 5688 5688 5685 5681 5678 5673 5666 5658 5650 5646 5643 5642 5638 5635 5632 5628 5624 5618 5614 5611 5607 5602 5599 5596 5593 5589 5586 5584 5584 5585 5584 5582 5580 5576 5572 5568 5566 5562 5557 5554 5552 5550
5679 5680 5680 5678 5675 5673 5670 5663 5654 5645 5638 5634 5631 5628 5625 5623 5620 5615 5611 5606 5602 5597 5592 5588 5584 5579 5575 5572 5567 5566 5565 5568 5569 5570 5564 5561 5556 5552 5546 5541 5538 5536 5534
5670 5672 5674 5670 5667 5665 5661 5655 5645 5637 5631 5625 5620 5617 5615 5614 5610 5606 5602 5597 5593 5588 5581 5576 5572 5566 5561 5557 5554 5550 5546 5544 5547 5555 5553 5548 5543 5537 5531 5527 5524 5521 5519
5664 5664 5665 5663 5660 5658 5656 5651 5644 5637 5627 5620 5614 5609 5605 5603 5600 5596 5592 5588 5583 5577 5571 5565 5559 5554 5548 5543 5539 5535 5530 5526 5522 5532 5539 5536 5531 5525 5520 5516 5512 5509 5507
5657 5657 5656 5654 5652 5650 5649 5646 5641 5632 5622 5611 5605 5600 5595 5592 5589 5586 5582 5577 5571 5565 5559 5553 5547 5541 5535 5530 5525 5520 5516 5511 5505 5501 5513 5518 5516 5512 5506 5502 5499 5496 5493
5649 5649 5649 5647 5644 5642 5640 5638 5635 5625 5615 5604 5597 5591 5586 5581 5578 5574 5570 5565 5559 5553 5547 5540 5534 5529 5523 5518 5512 5506 5501 5495 5491 5485 5487 5496 5499 5499 5494 5491 5486 5481 5476